STARLINK-3752 (52312 NORAD) Tracking and Keplerian Element Data

This shows tracking and keplerian element data for the satellite.

Feedback or suggestion? Click here.




ElementValue
Catalog52312
NameSTARLINK-3752
Epoch Orbit130
Epoch Day167.08334491
Epoch Year2022
RAAN100.6227
Inclination53.2161
Eccentricity0.0003994
Argument of Perigee7.7966
Mean Anonmoly307.1479
Mean Motion15.73260762
Decay Rate-0.0001522
L11 52312U 22041BD 22167.08334491 -.00015220 00000+0 -10386-3 0 9994
L22 52312 53.2161 100.6227 0003994 7.7966 307.1479 15.73260762 1305

Live tracking and technical data element details for STARLINK-3752 (NORAD 52312). STARLINK-3752 can be tracked NOW for your location showing map with azimuth and elevation plus other details from your city location.

Track the satellite on the map from your city or location and see movement details for azimuth, elevation, latitude, longitude, range, height, and movement on the map or in text.







IsCatalogInMostPopularTable: catalog: 52312, numindb: 2
Update: records affected: 1



GetName: 52312 STARLINK-3752

Hit Count: updated at: Mon, 27 Jun 2022 05:20:00 GMT